Location: Invercargill
(46.4000°S, 168.3500°E)
Time: 17:54:57
(UTC+12:00)

Cosmos 883 Rocket - Pass Details

Date: 14 May 2021
Orbit: 950 x 995 km, 83.0° (Epoch: 14 June)

Event Time Altitude Azimuth Distance (km) Brightness Sun altitude
Rises 19:47:07 0° 187° (S) 3,674 7.6 -24.4°
Reaches altitude 10° 19:49:39 10° 183° (S) 2,726 6.8 -24.8°
Maximum altitude 19:55:52 65° 101° (ESE) 1,069 4.4 -25.9°
Enters shadow 19:56:24 62° 74° (ENE) 1,091 4.4 -26.0°
